Zadar, Croatia

10:55 AM CET on February 24, 2017 (GMT +0100)
Zemunik

Weather History for LDZD - October, 2013

Change the Weather History Date:

Sunday, October 27, 2013

  Actual Average Record
Temperature  
Mean Temperature 60 °F -  
Max Temperature 66 °F - - ()
Min Temperature 53 °F - - ()
Degree Days  
Heating Degree Days 6    
Growing Degree Days 10 (Base 50)    
Moisture  
Dew Point 59 °F    
Average Humidity 95    
Maximum Humidity 100    
Minimum Humidity 78    
Precipitation  
Precipitation 0.00 in - - ()
Sea Level Pressure  
Sea Level Pressure 30.18 in    
Wind  
Wind Speed 2 mph ()    
Max Wind Speed 7 mph    
Max Gust Speed -    
Visibility 3.1 miles    
Events Fog    
T = Trace of Precipitation, MM = Missing Value Source: Averaged Metar Reports

Daily Weather History Graph

Daily Weather History Graph

Search for Another Location

Airport or City:

Trip Planner

Search our weather history database for the weather conditions in past years. The results will help you decide how hot, cold, wet, or windy it might be!

Date:

Astronomy

Oct. 27, 2013 Rise Set
Actual Time 6:28 AM CET 4:55 PM CET
Civil Twilight 5:58 AM CET 5:25 PM CET
Nautical Twilight 5:24 AM CET 5:59 PM CET
Astronomical Twilight 4:51 AM CET 6:32 PM CET
Moon 11:53 PM CET (10/27) 1:08 PM CET (10/27)
Length of Visible Light 11h 26m
Length of Day
10h 27m
Last Quarter, 45% of the Moon is Illuminated
Oct 27
Last Quarter
Nov 3
New
Nov 10
First Quarter
Nov 17
Full
Nov 25
Last Quarter

Hourly Weather History & Observations

Time (CET) Temp. Dew Point Humidity Pressure Visibility Wind Dir Wind Speed Gust Speed Precip Events Conditions
12:00 AM 57.2 °F 57.2 °F 100% 30.21 in 2.8 mi Calm Calm - N/A   Partly Cloudy
12:30 AM 59.0 °F 59.0 °F 100% 30.21 in 2.8 mi Calm Calm - N/A   Partly Cloudy
1:00 AM 60.8 °F 60.8 °F 100% 30.21 in 0.5 mi North 3.5 mph - N/A Fog Patches of Fog
1:30 AM 60.8 °F 60.8 °F 100% 30.21 in 0.2 mi NNE 3.5 mph - N/A Fog Fog
2:00 AM 59 °F 58 °F 97% 30.23 in 0 mi Calm Calm - -  
2:00 AM 59.0 °F 59.0 °F 100% 30.21 in 0.2 mi Variable 1.2 mph - N/A Fog Fog
2:30 AM 59.0 °F 59.0 °F 100% 30.21 in 0.1 mi Calm Calm - N/A Fog Fog
2:00 AM 59.0 °F 59.0 °F 100% 30.21 in 0.1 mi Calm Calm - N/A Fog Fog
2:30 AM 59.0 °F 59.0 °F 100% 30.21 in 0.0 mi Calm Calm - N/A Fog Fog
3:00 AM 59.0 °F 59.0 °F 100% 30.18 in 0.0 mi ENE 1.2 mph - N/A Fog Fog
3:30 AM 59.0 °F 59.0 °F 100% 30.18 in 0.0 mi Variable 2.3 mph - N/A Fog Fog
4:00 AM 59.0 °F 59.0 °F 100% 30.18 in 0.1 mi Calm Calm - N/A Fog Fog
4:30 AM 59.0 °F 59.0 °F 100% 30.18 in 0.1 mi Variable 2.3 mph - N/A Fog Fog
5:00 AM 59.0 °F 59.0 °F 100% 30.18 in 0.4 mi Variable 2.3 mph - N/A Fog Patches of Fog
5:30 AM 60.8 °F 60.8 °F 100% 30.18 in 0.9 mi NNE 4.6 mph - N/A Fog Patches of Fog
6:00 AM 59.0 °F 59.0 °F 100% 30.18 in 1.9 mi NE 4.6 mph - N/A   Mostly Cloudy
6:30 AM 59.0 °F 59.0 °F 100% 30.18 in 0.9 mi Variable 2.3 mph - N/A   Mostly Cloudy
7:00 AM 60 °F 60 °F 98% 30.21 in 1 mi SE 4.5 mph - -   Mist
7:00 AM 59.0 °F 59.0 °F 100% 30.18 in 0.9 mi East 4.6 mph - N/A   Mostly Cloudy
7:30 AM 60.8 °F 60.8 °F 100% 30.18 in 1.9 mi Variable 1.2 mph - N/A   Mostly Cloudy
8:00 AM 60.8 °F 60.8 °F 100% 30.21 in 2.5 mi Variable 2.3 mph - N/A   Mostly Cloudy
8:30 AM 62.6 °F 60.8 °F 94% 30.18 in 2.5 mi Variable 2.3 mph - N/A   Scattered Clouds
9:00 AM 62.6 °F 60.8 °F 94% 30.18 in 3.7 mi SSE 3.5 mph - N/A   Mostly Cloudy
9:30 AM 62.6 °F 60.8 °F 94% 30.21 in 4.3 mi SSE 3.5 mph - N/A   Mostly Cloudy
10:00 AM 63 °F 61 °F 90% 30.21 in 6 mi SSE 4.5 mph - -   Overcast
10:00 AM 62.6 °F 60.8 °F 94% 30.21 in 6.2 mi South 3.5 mph - N/A   Mostly Cloudy
10:30 AM 64.4 °F 60.8 °F 88% 30.21 in 6.2 mi South 4.6 mph - N/A   Overcast
11:00 AM 64.4 °F 60.8 °F 88% 30.21 in 6.2 mi SSW 4.6 mph - N/A   Mostly Cloudy
11:30 AM 64.4 °F 60.8 °F 88% 30.21 in 6.2 mi Variable 2.3 mph - N/A   Mostly Cloudy
12:00 PM 66.2 °F 60.8 °F 83% 30.18 in 6.2 mi Calm Calm - N/A   Mostly Cloudy
12:30 PM 66.2 °F 60.8 °F 83% 30.18 in 6.2 mi Variable 2.3 mph - N/A   Mostly Cloudy
1:00 PM 65 °F 61 °F 82% 30.18 in 9 mi SE 4.5 mph - -   Overcast
1:00 PM 64.4 °F 60.8 °F 88% 30.18 in 6.2 mi SE 5.8 mph - N/A   Mostly Cloudy
1:30 PM 66.2 °F 60.8 °F 83% 30.15 in 6.2 mi ESE 6.9 mph - N/A   Mostly Cloudy
2:00 PM 66.2 °F 60.8 °F 83% 30.15 in 6.2 mi SE 6.9 mph - N/A   Scattered Clouds
2:30 PM 66.2 °F 60.8 °F 83% 30.15 in 6.2 mi SE 6.9 mph - N/A   Scattered Clouds
3:00 PM 66.2 °F 60.8 °F 83% 30.15 in 6.2 mi SE 6.9 mph - N/A   Mostly Cloudy
3:30 PM 66.2 °F 60.8 °F 83% 30.15 in 6.2 mi SSE 5.8 mph - N/A   Scattered Clouds
4:00 PM 66 °F 61 °F 78% 30.14 in 9 mi SE 4.5 mph - -   Partly Cloudy
4:00 PM 66.2 °F 60.8 °F 83% 30.12 in 6.2 mi SE 5.8 mph - N/A   Scattered Clouds
4:30 PM 64.4 °F 60.8 °F 88% 30.15 in 6.2 mi SSE 5.8 mph - N/A   Scattered Clouds
5:00 PM 62.6 °F 60.8 °F 94% 30.15 in 6.2 mi SSW 4.6 mph - N/A   Scattered Clouds
5:30 PM 60.8 °F 60.8 °F 100% 30.15 in 5.0 mi South 3.5 mph - N/A   Mostly Cloudy
6:00 PM 60.8 °F 60.8 °F 100% 30.15 in 5.0 mi South 2.3 mph - N/A   Mostly Cloudy
6:30 PM 59.0 °F 59.0 °F 100% 30.15 in 4.3 mi Calm Calm - N/A   Mostly Cloudy
7:00 PM 57.2 °F 57.2 °F 100% 30.15 in 1.9 mi Variable 2.3 mph - N/A Fog Patches of Fog
7:30 PM 55.4 °F 55.4 °F 100% 30.15 in 1.9 mi ESE 3.5 mph - N/A Fog Patches of Fog
8:00 PM 55.4 °F 55.4 °F 100% 30.15 in 0.1 mi ESE 2.3 mph - N/A Fog Fog
8:30 PM 55.4 °F 55.4 °F 100% 30.15 in 0.4 mi SE 4.6 mph - N/A Fog Fog
9:00 PM 55.4 °F 55.4 °F 100% 30.15 in 0.2 mi SE 3.5 mph - N/A Fog Fog
9:30 PM 53.6 °F 53.6 °F 100% 30.15 in 1.1 mi SE 3.5 mph - N/A Fog Patches of Fog
10:00 PM 55 °F 55 °F 98% 30.17 in 0 mi SSE 2.2 mph - - Fog Patches of Fog
10:00 PM 55.4 °F 53.6 °F 94% 30.15 in 1.1 mi Variable 2.3 mph - N/A Fog Patches of Fog
10:30 PM 55.4 °F 55.4 °F 100% 30.15 in 1.1 mi SE 3.5 mph - N/A Fog Patches of Fog